This demonstration page uses our WeatherBlox Daily Observations layout. Learn more.

40.92945, -100.16068

Hourly Observations for June 5, 2015

Temp ( °F °C ) Dew Point ( °F °C ) Humidity (%) Winds ( mph kmh ) Pressure ( in mb ) Visibility ( mi km ) Precip ( " mm )
12:15 am 00:15 Cloudy 68 20 66 18.8 93 93 ESE 15 24 29.97 1015 10 16.0934 N/A
12:35 am 00:35 Cloudy 67 19.6 65 18.5 93 93 E 14 22 29.97 1015 10 16.0934 N/A
12:55 am 00:55 Cloudy with Rain 66 19 62 16.9 88 88 ESE 14 22 29.97 1015 10 16.0934 N/A
1:15 am 01:15 Cloudy 65 18.5 63 17 91 91 ESE 10 17 29.97 1015 4 6.43736 0.11 2.794
1:35 am 01:35 Cloudy 65 18.5 64 17.5 94 94 SE 7 11 29.97 1015 10 16.0934 0.15 3.81
1:55 am 01:55 Cloudy 65 18.6 64 17.6 94 94 SSE 3 6 30 1016 10 16.0934 0.16 4.064
2:15 am 02:15 Cloudy with Rain 65 18.1 63 17.2 95 95 E 9 15 29.97 1015 4 6.43736 0.09 2.286
2:35 am 02:35 Partly Cloudy 65 18.6 64 17.7 95 95 ESE 7 11 29.97 1015 10 16.0934 0.09 2.286
2:55 am 02:55 Clear 64 18 63 17.2 95 95 E 7 11 29.97 1015 10 16.0934 0.09 2.286
3:15 am 03:15 Partly Cloudy 65 18.1 63 17.3 95 95 ESE 7 11 29.97 1015 10 16.0934 N/A
3:35 am 03:35 Cloudy 64 18 63 17.2 95 95 E 9 15 29.97 1015 10 16.0934 N/A
3:55 am 03:55 Cloudy 64 18 63 17.3 96 96 ESE 8 13 29.97 1015 10 16.0934 0 0
4:15 am 04:15 Cloudy 64 17.9 63 17.1 95 95 SE 13 20 30 1016 10 16.0934 N/A
4:35 am 04:35 Cloudy 64 17.5 62 16.7 95 95 SSE 13 20 30 1016 10 16.0934 N/A
4:55 am 04:55 Cloudy 63 17 61 16.3 96 96 SSE 15 24 29.97 1015 10 16.0934 N/A
5:15 am 05:15 Cloudy 63 17.3 62 16.6 96 96 SSE 15 24 29.97 1015 10 16.0934 N/A
5:35 am 05:35 Cloudy 63 17 61 16.3 96 96 SSE 10 17 30.03 1017 10 16.0934 N/A
5:55 am 05:55 Cloudy 63 17 61 16.2 95 95 SE 8 13 30.03 1017 10 16.0934 N/A
6:15 am 06:15 Cloudy 63 17 61 16.3 96 96 SE 7 11 30.03 1017 10 16.0934 N/A
6:35 am 06:35 Cloudy 63 17.1 61 16.3 95 95 SSE 5 7 30.03 1017 10 16.0934 N/A
6:55 am 06:55 Cloudy 63 17.2 62 16.4 95 95 SW 3 6 30.03 1017 10 16.0934 0 0
7:15 am 07:15 Partly Cloudy 63 17.1 61 16.3 95 95 WSW 5 7 30.03 1017 10 16.0934 N/A
7:35 am 07:35 Partly Cloudy 63 17.3 62 16.5 95 95 W 7 11 30.06 1018 10 16.0934 N/A
7:55 am 07:55 Partly Cloudy 63 17.4 62 16.6 95 95 W 6 9 30.06 1018 10 16.0934 N/A
8:15 am 08:15 Partly Cloudy 63 17.3 62 16.5 95 95 W 8 13 30.06 1018 10 16.0934 N/A
8:35 am 08:35 Sunny 63 17.3 62 16.5 95 95 WNW 5 7 30.06 1018 10 16.0934 N/A
8:55 am 08:55 Sunny 63 17.3 62 16.5 95 95 NNW 3 6 30.06 1018 10 16.0934 N/A
9:15 am 09:15 Sunny 64 17.7 62 16.9 95 95 N 5 7 30.03 1017 10 16.0934 N/A
9:35 am 09:35 Sunny 64 18 63 17 94 94 NNE 8 13 30.03 1017 10 16.0934 N/A
9:55 am 09:55 Sunny 65 18.5 63 17.2 92 92 NE 8 13 30 1016 10 16.0934 N/A
10:15 am 10:15 Sunny 66 18.8 64 17.5 92 92 ENE 9 15 30 1016 10 16.0934 N/A
10:35 am 10:35 Partly Cloudy 66 19.1 63 17.2 89 89 SSW 3 6 30.06 1018 10 16.0934 N/A
10:55 am 10:55 Partly Cloudy 67 19.2 63 17.2 88 88 SSW 5 7 30.06 1018 10 16.0934 N/A
11:15 am 11:15 Mostly Cloudy 67 19.5 63 17.1 86 86 Calm 30.06 1018 10 16.0934 0.01 0.254
11:35 am 11:35 Partly Cloudy 69 20.5 64 18 86 86 E 9 15 30 1016 10 16.0934 0.01 0.254
11:55 am 11:55 Partly Cloudy 69 20.8 65 18.1 85 85 E 8 13 30 1016 10 16.0934 0.01 0.254
12:15 pm 12:15 Cloudy 70 21 64 18 83 83 ESE 7 11 30 1016 10 16.0934 N/A
12:35 pm 12:35 Cloudy 70 21.2 64 17.7 81 81 E 8 13 30 1016 10 16.0934 N/A
12:55 pm 12:55 Cloudy 71 21.9 64 17.9 78 78 SE 7 11 30 1016 10 16.0934 0 0
1:15 pm 13:15 Mostly Cloudy 71 21.5 64 17.8 80 80 E 3 6 30 1016 10 16.0934 N/A
1:35 pm 13:35 Cloudy 71 21.7 63 17.1 75 75 Calm 30 1016 10 16.0934 N/A
1:55 pm 13:55 Cloudy 72 22.3 64 17.6 75 75 Calm 30 1016 10 16.0934 N/A
2:15 pm 14:15 Cloudy 71 21.8 63 17.1 75 75 Calm 30 1016 10 16.0934 N/A
2:35 pm 14:35 Cloudy 73 22.7 63 17.4 72 72 ESE 3 6 30 1016 10 16.0934 N/A
2:55 pm 14:55 Mostly Cloudy 74 23.3 64 17.9 72 72 Calm 30 1016 10 16.0934 N/A
3:15 pm 15:15 Partly Cloudy 74 23.5 64 17.9 71 71 E 3 6 30 1016 10 16.0934 N/A
3:35 pm 15:35 Mostly Cloudy 75 23.9 64 18 70 70 Calm 30 1016 10 16.0934 N/A
3:55 pm 15:55 Partly Cloudy 74 23.6 63 17.2 67 67 Calm 30 1016 10 16.0934 N/A
4:15 pm 16:15 Partly Cloudy 75 24 64 17.7 68 68 Calm 30 1016 10 16.0934 N/A
4:35 pm 16:35 Partly Cloudy 76 24.6 64 17.7 66 66 E 3 6 29.97 1015 10 16.0934 N/A
4:55 pm 16:55 Sunny 77 24.8 64 18 66 66 E 5 7 29.94 1014 10 16.0934 N/A
5:15 pm 17:15 Hazy 77 24.9 65 18.5 68 68 SE 5 7 29.94 1014 3 4.82802 N/A
5:35 pm 17:35 Mostly Cloudy with Haze 76 24.7 66 18.7 69 69 E 7 11 29.94 1014 0.75 1.207005 N/A
5:55 pm 17:55 Sunny 76 24.7 64 17.9 66 66 E 10 17 29.91 1013 10 16.0934 N/A
6:15 pm 18:15 Hazy 75 24 65 18.1 70 70 ENE 8 13 29.91 1013 4 6.43736 N/A
6:35 pm 18:35 Sunny 75 24 65 18.1 70 70 E 13 20 29.91 1013 10 16.0934 N/A
6:55 pm 18:55 Sunny 75 23.8 64 17.6 68 68 E 12 19 29.91 1013 10 16.0934 N/A
7:15 pm 19:15 Sunny 74 23.2 63 17.4 70 70 E 10 17 29.94 1014 10 16.0934 N/A
7:35 pm 19:35 Sunny 73 23 63 17.2 70 70 E 9 15 29.94 1014 10 16.0934 N/A
7:55 pm 19:55 Sunny 73 23 64 17.6 72 72 ESE 9 15 29.94 1014 10 16.0934 N/A
8:15 pm 20:15 Sunny 73 22.6 64 17.5 73 73 ESE 9 15 29.94 1014 10 16.0934 N/A
8:35 pm 20:35 Sunny 72 22.2 64 18 77 77 ESE 10 17 29.94 1014 10 16.0934 N/A
8:55 pm 20:55 Mostly Cloudy with Nearby Thunderstorms 72 22.2 65 18.1 78 78 ESE 9 15 29.94 1014 10 16.0934 N/A
9:15 pm 21:15 Cloudy 72 22.3 64 18 77 77 SE 8 13 29.94 1014 10 16.0934 N/A
9:35 pm 21:35 Mostly Cloudy 72 22 64 18 78 78 E 9 15 29.94 1014 10 16.0934 N/A
9:55 pm 21:55 Mostly Cloudy 71 21.9 64 18 79 79 E 9 15 29.94 1014 10 16.0934 N/A
10:15 pm 22:15 Cloudy 71 21.7 64 18 80 80 ESE 8 13 29.94 1014 10 16.0934 N/A
10:35 pm 22:35 Cloudy with Light Drizzle 70 21 65 18.5 86 86 SSE 6 9 29.97 1015 10 16.0934 N/A
10:55 pm 22:55 Cloudy with Light Rain 69 20.6 66 18.8 89 89 S 6 9 29.97 1015 7 11.26538 N/A
11:15 pm 23:15 Cloudy with Light Rain 69 20.6 66 18.8 89 89 S 5 7 29.97 1015 10 16.0934 N/A
11:35 pm 23:35 Partly Cloudy 69 20.3 66 18.7 91 91 SSE 5 7 29.97 1015 10 16.0934 N/A
11:55 pm 23:55 Mostly Cloudy with Nearby Thunderstorms 68 20.2 66 18.7 91 91 S 5 7 30 1016 10 16.0934 N/A

Powered by AerisWeather